sat.trackr.live / text

‹ back to catalog

STARLINK-5927

NORAD 55934 · 2023-037W

PAYLOAD ACTIVE UNKNOWN

§ Identity

Operator
Country
US
Launch date
2023-03-17
Launch site
AFWTR
Launch vehicle
Mass (kg)
RCS (m²)

Purposes: comms

External: N2YO · Heavens-Above · Gunter

§ Orbital elements

Epoch: 2026-05-25T03:26:59.116128Z

Period
96.11 min
Inclination
69.9998°
Eccentricity
0.0003364
Mean motion
14.98335725 rev/d
Perigee alt
569.7 km
Apogee alt
574.4 km
Semi-major
6,950.2 km
B*
1.5530e-5
RAAN
91.6360°
Arg perigee
269.4342°
Mean anomaly
90.6432°
Rev number
17,543

§ Raw data

STARLINK-59271 55934U 23037W   26145.14373977  .00000092  00000+0  15530-4 0  99982 55934  69.9998  91.6360 0003364 269.4342  90.6432 14.98335725175430

JSON: /api/v1/satellites/55934 · /tle

For live sub-satellite position, see the globe view (requires WebGL).

§ Visibility from observer

Set your observer location to see the next 7 days of passes ≥ 10°. The values pass through the URL so the page stays shareable.

No JS? Fill the form by hand. The geolocation button needs JavaScript.